EW3163 Weather Reports


Display with metric or nautical units.
time (UTC)temp
F
wind
direction
speed
MPH
gust
MPH
rain 1hr
in
rain 24hr
in
rain mn
in
humidity
%
barometer
mb
20260903030055 62 113 0.0 0.0 0.06 0.10 0.06 94 1007.8
20260903024556 63 202 0.0 0.0 0.06 0.10 0.06 94 1007.8
20260903023052 63 139 0.0 1.0 0.06 0.10 0.06 94 1007.8
20260903021551 63 163 0.0 1.0 0.00 0.04 0.00 94 1008.0
20260903020053 63 92 0.0 1.0 0.00 0.04 0.00 94 1007.9
20260903014610 63 252 0.0 1.0 0.00 0.04 0.00 94 1007.9
20260903013101 64 89 0.0 1.0 0.00 0.04 0.00 93 1008.1
20260903011613 64 89 0.0 2.0 0.00 0.04 0.00 93 1008.1
20260903010103 63 155 0.0 4.0 0.00 0.04 0.00 94 1007.9
20260903004543 63 227 0.0 0.0 0.00 0.04 0.00 94 1008.1
20260903003055 63 133 0.0 0.0 0.00 0.04 0.00 94 1008.1
20260903001553 63 201 0.0 1.0 0.00 0.04 0.00 94 1008.3
20260903000046 64 187 0.0 3.0 0.00 0.04 0.00 94 1008.4
20260902234542 63 209 0.0 3.0 0.00 0.04 0.00 95 1008.5
20260902233038 63 193 0.0 3.0 0.00 0.04 0.00 95 1008.3
20260902231544 63 143 0.0 1.0 0.00 0.04 0.00 95 1008.6
20260902230040 62 196 0.0 0.0 0.00 0.04 0.00 95 1008.6
20260902224531 62 177 0.0 0.0 0.00 0.04 0.04 95 1008.7
20260902223039 62 172 0.0 0.0 0.00 0.04 0.04 95 1008.6
20260902221532 62 153 0.0 0.0 0.00 0.04 0.04 95 1008.6
20260902220035 61 138 0.0 0.0 0.00 0.04 0.04 95 1008.7
20260902214530 61 101 0.0 0.0 0.00 0.04 0.04 95 1008.8
20260902213027 61 102 0.0 0.0 0.00 0.04 0.04 95 1008.8
20260902211529 61 148 0.0 0.0 0.00 0.04 0.04 95 1008.9
20260902210025 61 150 0.0 0.0 0.00 0.04 0.04 95 1008.9
20260902204522 61 187 0.0 0.0 0.00 0.04 0.04 95 1009.2
20260902203025 61 192 0.0 0.0 0.00 0.04 0.04 95 1009.3
20260902201522 61 223 0.0 0.0 0.00 0.04 0.04 95 1009.2
20260902200025 62 121 0.0 1.0 0.00 0.04 0.04 95 1009.2
20260902194535 62 149 0.0 0.0 0.00 0.04 0.04 95 1009.3
20260902193020 61 146 0.0 1.0 0.00 0.04 0.04 95 1009.3
20260902191518 61 169 0.0 1.0 0.00 0.04 0.04 95 1009.4
20260902190017 61 147 0.0 1.0 0.00 0.04 0.04 95 1009.5
20260902184520 61 143 0.0 1.0 0.00 0.04 0.04 94 1009.6
20260902183016 61 140 0.0 1.0 0.00 0.04 0.04 94 1009.6
20260902181514 61 139 0.0 1.0 0.00 0.04 0.04 94 1009.7
20260902180012 61 136 0.0 0.0 0.00 0.04 0.04 94 1009.9
20260902174512 61 128 0.0 1.0 0.00 0.04 0.04 94 1010.1
20260902173010 61 146 0.0 1.0 0.00 0.04 0.04 93 1010.2
20260902171512 61 148 0.0 2.0 0.00 0.04 0.04 93 1010.3
20260902170013 61 141 0.0 4.0 0.00 0.04 0.04 92 1010.6
20260902164503 61 139 0.0 1.0 0.00 0.04 0.04 92 1010.9
20260902163001 62 117 0.0 1.0 0.00 0.04 0.04 92 1011.1
20260902161600 62 146 0.0 1.0 0.00 0.04 0.04 91 1011.2
20260902160108 62 129 0.0 1.0 0.00 0.04 0.04 91 1011.5
20260902154601 62 144 0.0 4.0 0.01 0.04 0.04 90 1011.7
20260902153054 62 135 0.0 1.0 0.01 0.04 0.04 91 1011.8
20260902151601 62 173 0.0 1.0 0.01 0.04 0.04 90 1012.0
20260902150051 62 145 0.0 1.0 0.01 0.04 0.04 90 1012.1
20260902144550 62 130 0.0 3.0 0.01 0.03 0.03 91 1012.3
20260902143049 62 113 0.0 0.0 0.01 0.03 0.03 91 1012.5
20260902141547 62 203 0.0 0.0 0.01 0.03 0.03 90 1012.6
20260902140048 62 201 0.0 0.0 0.00 0.02 0.02 89 1012.7
20260902134545 62 149 0.0 1.0 0.00 0.02 0.02 86 1012.7
20260902133044 63 146 0.0 1.0 0.00 0.02 0.02 86 1012.9
20260902131543 63 139 0.0 1.0 0.00 0.02 0.02 85 1013.1
20260902130041 64 148 0.0 1.0 0.00 0.02 0.02 85 1013.2
20260902124540 64 235 0.0 1.0 0.00 0.02 0.02 84 1013.3
20260902123037 64 160 0.0 1.0 0.00 0.02 0.02 86 1013.5
20260902121542 64 188 0.0 2.0 0.01 0.02 0.02 87 1013.5
20260902120040 64 179 0.0 0.0 0.01 0.02 0.02 89 1013.7
20260902114540 64 214 0.0 1.0 0.02 0.02 0.02 88 1013.8
20260902113034 64 165 0.0 0.0 0.02 0.02 0.02 88 1014.0
20260902111533 64 200 0.0 1.0 0.01 0.01 0.01 87 1014.1
20260902110039 64 148 0.0 0.0 0.01 0.01 0.01 85 1014.2
20260902104546 65 151 0.0 0.0 0.00 0.00 0.00 83 1014.3
20260902103030 65 161 0.0 0.0 0.00 0.00 0.00 81 1014.2
20260902101531 65 83 0.0 0.0 0.00 0.00 0.00 80 1014.3
20260902100029 65 205 0.0 0.0 0.00 0.00 0.00 80 1014.4
20260902094529 65 108 0.0 1.0 0.00 0.00 0.00 79 1014.3
20260902093030 65 188 0.0 1.0 0.00 0.00 0.00 79 1014.4
20260902091528 65 115 0.0 0.0 0.00 0.00 0.00 81 1014.5
20260902090028 65 142 0.0 1.0 0.00 0.00 0.00 80 1014.5
20260902084525 65 146 0.0 4.0 0.00 0.00 0.00 82 1014.6
20260902083022 65 126 0.0 2.0 0.00 0.00 0.00 84 1014.5
20260902081518 64 151 0.0 0.0 0.00 0.00 0.00 86 1014.3
20260902080022 63 94 0.0 0.0 0.00 0.00 0.00 86 1014.3
20260902074516 63 182 0.0 1.0 0.00 0.00 0.00 87 1014.4
20260902073014 62 152 0.0 3.0 0.00 0.00 0.00 89 1014.3
20260902071511 61 193 0.0 1.0 0.00 0.00 0.00 91 1014.1
20260902070008 60 151 0.0 0.0 0.00 0.00 0.00 93 1014.2
20260902064512 60 150 0.0 0.0 0.00 0.00 0.00 93 1014.4
20260902063006 59 150 0.0 0.0 0.00 0.00 0.00 93 1014.4
20260902061505 0 0.0 0.0 0.00 0.00 0.00 1014.3
20260902060134 0 0.0 0.0 0.00 0.00 0.00 1014.4
20260902054555 0 0.0 0.0 0.00 0.00 0.00 1014.2
20260902053051 0 0.0 0.0 0.00 0.00 0.00 1014.0
20260902051553 0 0.0 0.0 0.00 0.00 0.00 1014.0
20260902050042 0 0.0 0.0 0.00 0.00 0.00 1014.0
20260902044544 0 0.0 0.0 0.00 0.00 0.00 1014.2
20260902043033 0 0.0 0.0 0.00 0.00 0.00 1014.2
20260902041532 0 0.0 0.0 0.00 0.00 0.00 1014.0
20260902040025 59 143 0.0 0.0 0.00 0.00 0.00 91 1014.0
20260902034525 59 176 0.0 0.0 0.00 0.00 0.00 91 1014.1
20260902033025 59 152 0.0 0.0 0.00 0.00 0.00 91 1014.0
20260902031535 60 148 0.0 0.0 0.00 0.00 0.00 91 1014.1